[[{"header":{"parameterUnit":"m.s-1","parameterCategory":1,"la1":30.2991,"la2":30.254,"lo1":-89.0895,"lo2":-89.0444,"dy":0.0017,"dx":0.0017,"nx":28,"ny":28,"refTime":"2023-08-27T09:00:00:Z","depth":0,"parameterNumber":2,"parameterNumberName":"U-component_of_WINDS"},"data":[0,0,0,0,0,0,0,0,0,0,0,0,0,0,0,0,0,0,0,0,0,0,0,0,0,0,0,0,0,0,0,0,0,0,0,0,0,0,0,0,0,0,0,0,0,0,0,0,0,0,0,0,0,0,0,0,0,0,-0.4686,-0.4686,0,-0.4707,-0.4707,-0.4707,-0.4719,-0.4719,-0.4719,-0.4719,-0.4741,-0.4741,-0.4742,0,0,0,0,0,0,0,0,0,0,0,0,0,-0.4657,-0.4657,-0.4686,-0.4686,-0.4686,-0.4707,-0.4707,-0.4707,-0.4719,-0.4719,-0.4719,-0.4719,-0.4741,-0.4741,-0.4742,0,0,0,0,0,0,0,0,0,0,0,0,0,-0.4673,-0.4658,-0.4686,-0.4695,-0.4696,-0.4707,-0.4707,-0.4707,-0.4719,-0.4719,-0.4719,-0.4719,-0.474,-0.4741,-0.4742,-0.4746,0,0,-0.4744,-0.4745,0,0,0,0,0,0,0,0,-0.4672,-0.4674,-0.4693,-0.4694,-0.4695,-0.471,-0.4705,-0.472,-0.4719,-0.471,-0.4719,-0.4719,-0.4731,-0.4732,-0.4736,-0.4747,-0.4748,-0.4745,-0.4745,-0.4745,-0.4746,0,0,0,0,0,0,0,-0.4671,-0.4673,-0.4694,-0.4693,-0.4695,-0.4698,-0.47,-0.4708,-0.472,-0.4711,-0.4712,-0.4714,-0.4731,-0.4735,-0.4737,-0.4748,-0.4745,-0.4745,-0.4746,-0.4746,-0.4764,-0.4764,0,0,0,0,0,0,-0.4668,-0.4672,-0.4693,-0.4695,-0.4683,-0.4698,-0.4701,-0.4705,-0.472,-0.4722,-0.4714,-0.4715,-0.4734,-0.4736,-0.4737,-0.4743,-0.4745,-0.4746,-0.4747,-0.4764,-0.4764,-0.4764,0,0,0,0,0,0,-0.4667,-0.467,-0.4692,-0.4684,-0.4687,-0.4699,-0.4704,-0.4706,-0.471,-0.4722,-0.4724,-0.4716,-0.4734,-0.4736,-0.4744,-0.4744,-0.4746,-0.4747,-0.4764,-0.4764,-0.4764,-0.4755,0,0,0,0,0,0,-0.4667,-0.467,-0.4671,-0.4683,-0.4687,-0.4698,-0.4704,-0.4706,-0.4711,-0.4712,-0.4724,-0.4727,-0.4734,-0.4743,-0.4745,-0.4745,-0.4748,-0.4764,-0.4764,-0.4764,-0.4755,-0.4754,-0.4754,0,0,0,0,0,-0.4665,-0.4667,-0.4671,-0.4673,-0.4689,-0.4698,-0.47,-0.4709,-0.4711,-0.4713,-0.4721,-0.4726,-0.4744,-0.4743,-0.4746,-0.4747,-0.4764,-0.4764,-0.4764,-0.4755,-0.4754,-0.4754,0,0,0,0,0,0,-0.4654,-0.4669,-0.4673,-0.4679,-0.4687,-0.47,-0.4702,-0.4708,-0.4715,-0.4716,-0.4727,-0.4729,-0.4736,-0.4742,-0.4741,-0.4751,-0.4754,-0.4755,-0.4747,-0.4746,-0.4746,-0.4744,-0.4748,0,0,0,0,0,-0.4652,-0.4658,-0.4671,-0.4675,-0.4679,-0.469,-0.4694,-0.47,-0.4709,-0.4713,-0.4721,-0.473,-0.4738,-0.4742,-0.475,-0.4756,-0.4759,-0.4758,-0.4757,-0.4757,-0.4757,-0.4762,-0.4761,-0.4764,-0.4764,-0.4764,0,0,-0.4648,-0.4657,-0.466,-0.4673,-0.468,-0.4686,-0.4693,-0.4699,-0.4704,-0.4714,-0.4721,-0.4728,-0.4739,-0.4746,-0.4749,-0.4751,-0.4757,-0.4757,-0.4756,-0.4757,-0.4762,-0.4761,-0.4761,-0.4764,-0.4764,-0.4764,0,0,-0.4644,-0.4652,-0.4656,-0.4663,-0.4674,-0.4682,-0.4683,-0.4695,-0.47,-0.4708,-0.4716,-0.4722,-0.4735,-0.4742,-0.4748,-0.4748,-0.4754,-0.475,-0.4747,-0.4751,-0.4751,-0.4751,-0.4752,-0.4752,-0.475,-0.475,-0.475,0,-0.4638,-0.4648,-0.4658,-0.4664,-0.4669,-0.4679,-0.4684,-0.469,-0.4703,-0.4707,-0.4709,-0.4726,-0.4733,-0.4743,-0.4743,-0.4747,-0.4749,-0.4749,-0.475,-0.475,-0.475,-0.4751,-0.4751,-0.475,-0.475,-0.475,-0.475,0,-0.464,-0.4647,-0.4649,-0.4662,-0.4668,-0.4673,-0.4684,-0.4689,-0.4695,-0.4702,-0.4711,-0.472,-0.4731,-0.4733,-0.4739,-0.4744,-0.4745,-0.4748,-0.4751,-0.475,-0.475,-0.4751,-0.4749,-0.475,-0.475,-0.475,0,0,-0.4629,-0.4647,-0.4648,-0.4654,-0.4667,-0.4673,-0.4679,-0.4689,-0.4694,-0.4703,-0.4708,-0.472,-0.4723,-0.473,-0.4736,-0.474,-0.4741,-0.4744,-0.4744,-0.4743,-0.4747,-0.4744,-0.4745,-0.4745,-0.4745,-0.4745,-0.4747,0,-0.4627,-0.4639,-0.4648,-0.4656,-0.4663,-0.4673,-0.4679,-0.4688,-0.4695,-0.4702,-0.4711,-0.4718,-0.4723,-0.4727,-0.4731,-0.474,-0.4742,-0.474,-0.4751,-0.4751,-0.4748,-0.4745,-0.4742,-0.4743,-0.4747,-0.4747,-0.4747,0,-0.4627,-0.4636,-0.4645,-0.4658,-0.4661,-0.4666,-0.4677,-0.4683,-0.4694,-0.4699,-0.4707,-0.4714,-0.4722,-0.4724,-0.4736,-0.4734,-0.4739,-0.4744,-0.4745,-0.4746,-0.4749,-0.4747,-0.4744,-0.4744,-0.4748,-0.4748,-0.4748,0,-0.4618,-0.4632,-0.464,-0.4645,-0.466,-0.4664,-0.467,-0.4681,-0.4687,-0.4697,-0.4701,-0.4711,-0.4716,-0.4724,-0.4734,-0.4735,-0.4745,-0.4748,-0.475,-0.475,-0.4751,-0.4751,-0.4749,-0.4754,-0.4754,-0.4754,-0.4754,0,-0.4616,-0.4621,-0.4636,-0.4641,-0.4647,-0.4658,-0.4664,-0.4672,-0.4682,-0.4689,-0.4698,-0.4704,-0.4717,-0.4725,-0.4733,-0.4741,-0.4743,-0.4748,-0.475,-0.4747,-0.4747,-0.4751,-0.4751,-0.4754,-0.4754,-0.4754,-0.4754,0,-0.4607,-0.4618,-0.4626,-0.4641,-0.4645,-0.4649,-0.4661,-0.4666,-0.4675,-0.4683,-0.4686,-0.4699,-0.4709,-0.472,-0.4733,-0.4738,-0.4747,-0.4749,-0.4743,-0.4744,-0.4745,-0.4745,-0.4746,-0.4747,-0.4751,-0.4751,-0.4751,0,-0.4605,-0.4609,-0.4624,-0.4629,-0.4636,-0.4644,-0.465,-0.4661,-0.4668,-0.4681,-0.4684,-0.4695,-0.4704,-0.4719,-0.473,-0.4741,-0.4744,-0.4744,-0.4746,-0.4743,-0.4745,-0.4745,-0.4745,-0.4743,-0.4743,-0.4743,-0.4743,0,-0.46,-0.4605,-0.4613,-0.4624,-0.4631,-0.464,-0.4649,-0.4653,-0.4666,-0.4673,-0.4683,-0.469,-0.4704,-0.4715,-0.4727,-0.4734,-0.4741,-0.4743,-0.4744,-0.4741,-0.4737,-0.4739,-0.4742,-0.4742,-0.4742,-0.4742,-0.4743,-0.4743,-0.4594,-0.4599,-0.461,-0.462,-0.4628,-0.4637,-0.4643,-0.4652,-0.4661,-0.4673,-0.4679,-0.469,-0.4701,-0.4718,-0.4726,-0.4735,-0.4737,-0.4738,-0.4738,-0.4738,-0.4738,-0.4735,-0.4737,-0.4737,-0.4737,-0.4737,-0.4737,0,-0.459,-0.4598,-0.4607,-0.462,-0.4627,-0.4633,-0.4644,-0.465,-0.4659,-0.4669,-0.4678,-0.4691,-0.4701,-0.4713,-0.4725,-0.473,-0.4733,-0.4732,-0.4732,-0.4734,-0.4735,-0.4733,-0.4729,-0.4729,-0.4729,-0.4729,-0.4729,-0.4729,-0.4589,-0.4597,-0.4604,-0.4617,-0.4625,-0.4635,-0.4641,-0.4649,-0.4658,-0.4671,-0.468,-0.4688,-0.4699,-0.4712,-0.4722,-0.4725,-0.4729,-0.4728,-0.4732,-0.4733,-0.4734,-0.4734,-0.4733,-0.4729,-0.4729,-0.473,-0.473,-0.473]},{"header":{"parameterUnit":"m.s-1","parameterCategory":1,"la1":30.2991,"la2":30.254,"lo1":-89.0895,"lo2":-89.0444,"dy":0.0017,"dx":0.0017,"nx":28,"ny":28,"refTime":"2023-08-27T09:00:00:Z","depth":0,"parameterNumber":3,"parameterNumberName":"V-component_of_WINDS"},"data":[0,0,0,0,0,0,0,0,0,0,0,0,0,0,0,0,0,0,0,0,0,0,0,0,0,0,0,0,0,0,0,0,0,0,0,0,0,0,0,0,0,0,0,0,0,0,0,0,0,0,0,0,0,0,0,0,0,0,5.023,5.023,0,5.0218,5.0218,5.0217,5.0144,5.0143,5.0141,5.0139,5.0126,5.0128,5.0129,0,0,0,0,0,0,0,0,0,0,0,0,0,5.0189,5.019,5.023,5.023,5.023,5.0218,5.0218,5.0217,5.0145,5.0143,5.014,5.0138,5.0126,5.0127,5.0129,0,0,0,0,0,0,0,0,0,0,0,0,0,5.0195,5.0191,5.023,5.0192,5.0189,5.0218,5.0218,5.0217,5.0145,5.0143,5.014,5.0137,5.0125,5.0127,5.0129,5.0194,0,0,5.0135,5.0136,0,0,0,0,0,0,0,0,5.0195,5.0197,5.0198,5.0195,5.0191,5.018,5.0198,5.021,5.0146,5.0162,5.0139,5.0136,5.0146,5.0146,5.015,5.0193,5.0193,5.0135,5.0136,5.0137,5.0138,0,0,0,0,0,0,0,5.0194,5.0197,5.0225,5.0198,5.0194,5.0175,5.0173,5.02,5.0169,5.016,5.0155,5.0154,5.0144,5.0148,5.0149,5.0193,5.0135,5.0137,5.0138,5.0139,5.0286,5.0288,0,0,0,0,0,0,5.0199,5.0197,5.0226,5.0225,5.0186,5.0178,5.0176,5.0186,5.0168,5.0163,5.0157,5.0151,5.0146,5.0147,5.0148,5.022,5.0137,5.0139,5.014,5.0283,5.0286,5.0289,0,0,0,0,0,0,5.0199,5.0203,5.0226,5.0209,5.0211,5.0181,5.0194,5.0187,5.0191,5.0166,5.016,5.0167,5.0144,5.0145,5.0182,5.0219,5.014,5.0142,5.028,5.0284,5.0288,5.0367,0,0,0,0,0,0,5.0198,5.0203,5.0228,5.021,5.0212,5.0261,5.0196,5.0189,5.0195,5.0187,5.0174,5.0169,5.0142,5.018,5.0184,5.022,5.0143,5.0276,5.0282,5.0286,5.0361,5.0374,5.0384,0,0,0,0,0,5.0197,5.0251,5.023,5.0233,5.0243,5.0264,5.0264,5.0233,5.0198,5.0222,5.0205,5.0169,5.0215,5.0184,5.0189,5.0226,5.0274,5.028,5.0286,5.0356,5.0371,5.0384,0,0,0,0,0,0,5.0274,5.0248,5.0224,5.0275,5.0272,5.0251,5.0281,5.025,5.0257,5.025,5.021,5.0207,5.025,5.0242,5.0208,5.0286,5.0238,5.0245,5.029,5.0304,5.0315,5.0315,5.0145,0,0,0,0,0,5.0297,5.0317,5.0293,5.034,5.034,5.0311,5.0319,5.0294,5.029,5.0288,5.0274,5.0271,5.0284,5.0294,5.0305,5.036,5.0355,5.0388,5.0399,5.0409,5.0415,5.0441,5.0454,5.0309,5.0309,5.0309,0,0,5.0345,5.0333,5.0348,5.0355,5.035,5.037,5.031,5.0335,5.0349,5.0292,5.0325,5.0315,5.0309,5.0354,5.0374,5.0349,5.0454,5.0417,5.0424,5.0425,5.0449,5.0462,5.0475,5.0314,5.0313,5.0312,0,0,5.0441,5.0436,5.0473,5.0468,5.0461,5.0441,5.045,5.0434,5.0425,5.0458,5.0414,5.0431,5.0455,5.0451,5.0453,5.0546,5.0512,5.0551,5.061,5.0636,5.0648,5.0658,5.0689,5.07,5.0558,5.0558,5.0558,0,5.0501,5.053,5.0496,5.0522,5.0525,5.0475,5.0511,5.0509,5.0506,5.0509,5.0481,5.0509,5.0501,5.0544,5.0567,5.0571,5.0578,5.0552,5.0649,5.0659,5.0667,5.0696,5.0708,5.0563,5.0562,5.0562,5.0561,0,5.0603,5.0624,5.0655,5.0652,5.0659,5.0691,5.0659,5.0671,5.0646,5.0628,5.0661,5.065,5.0657,5.0666,5.0642,5.0705,5.0689,5.0656,5.0606,5.0686,5.0713,5.0724,5.0569,5.0568,5.0566,5.0565,0,0,5.0748,5.0725,5.0736,5.0733,5.0721,5.0736,5.0764,5.077,5.078,5.0779,5.0801,5.0822,5.079,5.0792,5.0767,5.079,5.0862,5.0754,5.0753,5.0772,5.0928,5.0951,5.0965,5.084,5.0842,5.0844,5.0927,0,5.0839,5.0886,5.0854,5.0906,5.0923,5.0874,5.0899,5.0893,5.0878,5.089,5.0872,5.0887,5.0846,5.0846,5.0867,5.0849,5.0892,5.0843,5.0858,5.0859,5.0859,5.0979,5.1004,5.1084,5.0938,5.0939,5.0941,0,5.0951,5.0953,5.1007,5.0988,5.0994,5.1017,5.1019,5.1031,5.1024,5.101,5.1012,5.098,5.1006,5.0958,5.0992,5.0959,5.0963,5.0955,5.0958,5.0956,5.0903,5.0979,5.1108,5.112,5.0957,5.0956,5.0955,0,5.1048,5.1066,5.1099,5.1098,5.1078,5.1095,5.1087,5.1077,5.1082,5.1084,5.1086,5.1091,5.1094,5.1098,5.1068,5.1037,5.1105,5.1055,5.1093,5.1094,5.1108,5.1107,5.1238,5.1115,5.1115,5.1115,5.1114,0,5.1151,5.1185,5.1142,5.1162,5.1198,5.1161,5.1198,5.1185,5.1176,5.1192,5.1151,5.1167,5.1128,5.114,5.1117,5.1147,5.1149,5.1138,5.1131,5.114,5.1142,5.1142,5.1134,5.1118,5.1117,5.1116,5.1116,0,5.1265,5.1238,5.1271,5.1249,5.1244,5.1271,5.1252,5.1269,5.1251,5.1272,5.1274,5.1245,5.1257,5.1228,5.1236,5.122,5.1262,5.1247,5.1264,5.1259,5.1298,5.1294,5.1432,5.1447,5.1316,5.1317,5.1318,0,5.1332,5.1356,5.1337,5.1344,5.1339,5.1352,5.1356,5.1321,5.1327,5.1319,5.1337,5.1345,5.1349,5.137,5.1349,5.1354,5.1338,5.1386,5.1338,5.1346,5.1336,5.1334,5.1335,5.1395,5.1397,5.1398,5.1399,0,5.1452,5.1437,5.1445,5.1447,5.1453,5.1454,5.1451,5.146,5.1422,5.1431,5.1441,5.1445,5.1452,5.1459,5.146,5.1451,5.1418,5.1414,5.1423,5.1432,5.144,5.1433,5.1289,5.1411,5.141,5.1409,5.1408,5.1408,5.1543,5.1561,5.155,5.1559,5.1553,5.1551,5.1566,5.1548,5.1557,5.1559,5.1538,5.1553,5.1542,5.1539,5.1534,5.1544,5.1522,5.1535,5.1538,5.1542,5.1547,5.144,5.1545,5.1544,5.1544,5.1543,5.1543,0,5.1659,5.1649,5.1658,5.1655,5.1661,5.163,5.1625,5.1633,5.1646,5.1639,5.1644,5.1655,5.1662,5.1642,5.1645,5.1658,5.1642,5.166,5.1657,5.1655,5.1568,5.1559,5.1671,5.1671,5.1671,5.1671,5.1671,5.1671,5.172,5.1749,5.1732,5.1757,5.1746,5.176,5.1759,5.1757,5.1751,5.1765,5.177,5.1757,5.1744,5.1746,5.175,5.1744,5.1746,5.1768,5.1757,5.1674,5.1662,5.165,5.1641,5.177,5.177,5.1843,5.1844,5.1844]}]]